DW6016 Weather Reports


time (UTC)temp
C
wind
direction
speed
KPH
gust
KPH
rain 1hr
cm
rain 24hr
cm
rain mn
cm
humidity
%
barometer
mb
20260508025121 19 305 0.0 0.0 0.00 0.00 0.00 49 1016.9
20260508024617 19 305 0.0 0.0 0.00 0.00 0.00 47 1016.8
20260508024114 19 305 0.0 0.0 0.00 0.00 0.00 48 1016.9
20260508023610 20 305 0.0 0.0 0.00 0.00 0.00 48 1016.9
20260508023108 20 305 0.0 0.0 0.00 0.00 0.00 50 1017.0
20260508022603 20 305 0.0 0.0 0.00 0.00 0.00 47 1017.0
20260508022101 20 305 0.0 0.0 0.00 0.00 0.00 47 1017.1
20260508021556 21 305 0.0 0.0 0.00 0.00 0.00 47 1017.1
20260508021052 22 305 1.6 1.6 0.00 0.00 0.00 45 1017.4
20260508020550 22 305 0.0 0.0 0.00 0.00 0.00 41 1017.3
20260508020048 23 305 0.0 0.0 0.00 0.00 0.00 42 1017.6
20260508015545 22 313 0.0 0.0 0.00 0.00 0.00 42 1017.1
20260508015042 22 328 0.0 0.0 0.00 0.00 0.00 42 1017.1
20260508014538 21 331 0.0 0.0 0.00 0.00 0.00 42 1017.2
20260508014034 21 302 1.6 3.2 0.00 0.00 0.00 41 1017.3
20260508013530 21 302 0.0 1.6 0.00 0.00 0.00 41 1017.3
20260508013028 21 10 4.8 4.8 0.00 0.00 0.00 41 1017.0
20260508012525 21 314 0.0 1.6 0.00 0.00 0.00 43 1017.0
20260508012022 21 307 1.6 1.6 0.00 0.00 0.00 45 1017.1
20260508011521 21 302 0.0 1.6 0.00 0.00 0.00 42 1017.1
20260508011018 21 306 1.6 1.6 0.00 0.00 0.00 44 1017.3
20260508010514 21 314 1.6 1.6 0.00 0.00 0.00 43 1017.2
20260508010012 21 303 3.2 3.2 0.00 0.00 0.00 43 1017.2
20260508005508 21 315 0.0 1.6 0.00 0.00 0.00 43 1017.5
20260508005005 21 304 0.0 0.0 0.00 0.00 0.00 42 1017.1
20260508004501 21 308 3.2 3.2 0.00 0.00 0.00 43 1017.4
20260508003958 21 306 1.6 3.2 0.00 0.00 0.00 44 1017.5
20260508003454 21 297 0.0 1.6 0.00 0.00 0.00 42 1017.3
20260508002952 21 297 1.6 1.6 0.00 0.00 0.00 42 1017.5
20260508002448 21 302 0.0 1.6 0.00 0.00 0.00 43 1017.3
20260508001944 21 288 0.0 1.6 0.00 0.00 0.00 39 1017.4
20260508001441 21 321 0.0 0.0 0.00 0.00 0.00 37 1017.5
20260508000937 21 322 0.0 1.6 0.00 0.00 0.00 36 1017.5
20260508000434 21 298 4.8 4.8 0.00 0.00 0.00 36 1017.6
20260507235930 21 300 0.0 1.6 0.00 0.00 0.00 37 1017.6
20260507235427 21 290 1.6 1.6 0.00 0.00 0.00 35 1017.7
20260507234924 20 294 0.0 0.0 0.00 0.00 0.00 37 1017.8
20260507234421 20 304 1.6 4.8 0.00 0.00 0.00 36 1017.8
20260507233917 20 297 0.0 0.0 0.00 0.00 0.00 37 1017.7
20260507233414 20 315 0.0 1.6 0.00 0.00 0.00 36 1017.9
20260507232913 20 305 0.0 0.0 0.00 0.00 0.00 38 1017.9
20260507232409 20 348 0.0 0.0 0.00 0.00 0.00 38 1018.2
20260507231907 20 302 1.6 3.2 0.00 0.00 0.00 36 1018.0
20260507231403 20 286 0.0 1.6 0.00 0.00 0.00 39 1018.1
20260507230859 20 282 4.8 8.0 0.00 0.00 0.00 40 1018.2
20260507230357 20 280 1.6 1.6 0.00 0.00 0.00 38 1018.1
20260507225856 20 290 1.6 1.6 0.00 0.00 0.00 40 1018.1
20260507225353 20 320 0.0 1.6 0.00 0.00 0.00 41 1018.3
20260507224849 20 302 1.6 3.2 0.00 0.00 0.00 40 1018.6
20260507224346 20 317 1.6 3.2 0.00 0.00 0.00 40 1018.5
20260507223841 20 311 8.0 9.7 0.00 0.00 0.00 43 1018.5
20260507223338 20 28 1.6 1.6 0.00 0.00 0.00 43 1018.5
20260507222835 20 296 1.6 1.6 0.00 0.00 0.00 43 1018.6
20260507222332 20 315 0.0 1.6 0.00 0.00 0.00 47 1018.6
20260507221829 20 315 1.6 3.2 0.00 0.00 0.00 45 1018.8
20260507221325 20 325 1.6 3.2 0.00 0.00 0.00 47 1018.8
20260507220821 20 203 0.0 1.6 0.00 0.00 0.00 47 1018.8
20260507220320 20 301 0.0 0.0 0.00 0.00 0.00 47 1018.9
20260507215816 20 312 0.0 1.6 0.00 0.00 0.00 48 1019.0
20260507215313 19 282 0.0 1.6 0.00 0.00 0.00 47 1019.0
20260507214810 20 42 4.8 4.8 0.00 0.00 0.00 50 1019.0
20260507214308 19 141 1.6 3.2 0.00 0.00 0.00 49 1019.1
20260507213802 20 299 3.2 3.2 0.00 0.00 0.00 47 1019.0
20260507213259 19 289 4.8 4.8 0.00 0.00 0.00 51 1019.1
20260507212756 19 323 3.2 4.8 0.00 0.00 0.00 51 1019.0
20260507212252 19 299 1.6 1.6 0.00 0.00 0.00 53 1019.1
20260507211749 18 340 1.6 1.6 0.00 0.00 0.00 52 1019.3
20260507211245 18 99 4.8 8.0 0.00 0.00 0.00 52 1019.3
20260507210742 18 305 0.0 0.0 0.00 0.00 0.00 53 1019.4
20260507210239 18 317 0.0 0.0 0.00 0.00 0.00 54 1019.5
20260507205736 18 306 0.0 1.6 0.00 0.00 0.00 54 1019.5
20260507205233 18 304 4.8 4.8 0.00 0.00 0.00 54 1019.5
20260507204729 18 278 1.6 1.6 0.00 0.00 0.00 53 1019.7
20260507204227 18 312 4.8 4.8 0.00 0.00 0.00 53 1019.7
20260507203725 18 301 4.8 8.0 0.00 0.00 0.00 52 1019.8
20260507203222 19 307 0.0 0.0 0.00 0.00 0.00 53 1019.9
20260507202718 19 301 4.8 8.0 0.00 0.00 0.00 51 1020.1
20260507202214 18 341 0.0 1.6 0.00 0.00 0.00 49 1019.9
20260507201709 20 15 0.0 1.6 0.00 0.00 0.00 53 1020.1
20260507201206 18 293 0.0 0.0 0.00 0.00 0.00 52 1020.1
20260507200702 18 243 3.2 3.2 0.00 0.00 0.00 49 1020.2
20260507200158 18 288 3.2 3.2 0.00 0.00 0.00 51 1020.3
20260507195655 17 310 0.0 1.6 0.00 0.00 0.00 56 1020.2
20260507195152 18 285 0.0 0.0 0.00 0.00 0.00 53 1020.3
20260507194649 18 307 0.0 1.6 0.00 0.00 0.00 59 1020.4
20260507194144 18 310 3.2 3.2 0.00 0.00 0.00 56 1020.3
20260507193641 18 285 0.0 1.6 0.00 0.00 0.00 59 1020.6
20260507193139 18 288 1.6 1.6 0.00 0.00 0.00 56 1020.5
20260507192634 17 304 0.0 1.6 0.00 0.00 0.00 61 1020.6
20260507192132 18 357 1.6 1.6 0.00 0.00 0.00 55 1021.0
20260507191627 17 272 1.6 3.2 0.00 0.00 0.00 57 1020.9
20260507191124 17 319 3.2 4.8 0.00 0.00 0.00 56 1020.7
20260507190622 17 285 0.0 1.6 0.00 0.00 0.00 63 1021.0
20260507190121 18 263 1.6 1.6 0.00 0.00 0.00 57 1020.9
20260507185619 18 295 0.0 1.6 0.00 0.00 0.00 61 1021.0
20260507185115 17 276 1.6 1.6 0.00 0.00 0.00 59 1021.2
20260507184613 17 281 0.0 1.6 0.00 0.00 0.00 62 1021.0
20260507184111 17 271 0.0 0.0 0.00 0.00 0.00 59 1021.1
20260507183607 17 313 0.0 1.6 0.00 0.00 0.00 62 1021.3
20260507183104 16 259 1.6 3.2 0.00 0.00 0.00 63 1021.2
20260507182600 16 147 3.2 3.2 0.00 0.00 0.00 63 1021.4
20260507182055 17 312 0.0 1.6 0.00 0.00 0.00 59 1021.3
20260507181553 16 285 0.0 0.0 0.00 0.00 0.00 64 1021.5
20260507181049 15 34 1.6 3.2 0.00 0.00 0.00 64 1021.4
20260507180545 15 315 3.2 4.8 0.00 0.00 0.00 64 1021.5
20260507180043 16 316 1.6 3.2 0.00 0.00 0.00 63 1021.5
20260507175538 15 293 6.4 8.0 0.00 0.00 0.00 65 1021.6
20260507175037 15 317 3.2 3.2 0.00 0.00 0.00 66 1021.6
20260507174533 15 276 1.6 1.6 0.00 0.00 0.00 64 1021.6
20260507174031 16 314 1.6 1.6 0.00 0.00 0.00 63 1021.8
20260507173527 15 2 0.0 0.0 0.00 0.00 0.00 66 1021.8
20260507173025 15 336 0.0 1.6 0.00 0.00 0.00 68 1021.9
20260507172521 14 296 1.6 1.6 0.00 0.00 0.00 67 1021.5
20260507172018 15 280 1.6 3.2 0.00 0.00 0.00 66 1021.8
20260507171513 14 133 1.6 3.2 0.00 0.00 0.00 67 1021.9
20260507171011 14 323 0.0 0.0 0.00 0.00 0.00 68 1021.9
20260507170507 14 306 4.8 8.0 0.00 0.00 0.00 67 1021.8
20260507170004 15 298 1.6 1.6 0.00 0.00 0.00 66 1022.0
20260507165500 14 261 1.6 3.2 0.00 0.00 0.00 66 1022.2
20260507164956 13 339 1.6 1.6 0.00 0.00 0.00 70 1022.1
20260507164453 13 330 3.2 3.2 0.00 0.00 0.00 71 1022.0
20260507163949 13 85 1.6 3.2 0.00 0.00 0.00 70 1022.0
20260507163447 13 4 0.0 1.6 0.00 0.00 0.00 72 1022.0
20260507162944 13 323 1.6 1.6 0.00 0.00 0.00 71 1022.0
20260507162439 13 311 3.2 4.8 0.00 0.00 0.00 70 1022.1
20260507161937 13 276 1.6 3.2 0.00 0.00 0.00 71 1022.0
20260507161433 12 250 0.0 1.6 0.00 0.00 0.00 72 1022.0
20260507160930 12 322 1.6 1.6 0.00 0.00 0.00 73 1022.1
20260507160426 12 11 1.6 3.2 0.00 0.00 0.00 73 1022.0
20260507155921 12 178 4.8 4.8 0.00 0.00 0.00 73 1022.0
20260507155418 12 302 1.6 1.6 0.00 0.00 0.00 74 1022.1
20260507154915 12 354 4.8 4.8 0.00 0.00 0.00 72 1022.0
20260507154412 12 301 1.6 1.6 0.00 0.00 0.00 77 1022.2
20260507153909 12 305 0.0 0.0 0.00 0.00 0.00 75 1022.0
20260507153405 11 355 0.0 1.6 0.00 0.00 0.00 76 1022.2
20260507152902 11 330 1.6 1.6 0.00 0.00 0.00 75 1022.1
20260507152358 11 295 0.0 0.0 0.00 0.00 0.00 75 1022.2
20260507151854 11 265 1.6 1.6 0.00 0.00 0.00 75 1022.1
20260507151351 11 283 1.6 1.6 0.00 0.00 0.00 76 1021.9
20260507150848 11 311 0.0 0.0 0.00 0.00 0.00 76 1021.9
20260507150345 11 298 1.6 1.6 0.00 0.00 0.00 76 1022.1
20260507145840 11 126 1.6 3.2 0.00 0.00 0.00 76 1021.9
20260507145338 11 309 3.2 3.2 0.00 0.00 0.00 76 1022.0
20260507144834 11 136 3.2 3.2 0.00 0.00 0.00 76 1021.9
20260507144331 11 296 0.0 0.0 0.00 0.00 0.00 77 1022.0
20260507143828 11 279 1.6 3.2 0.00 0.00 0.00 77 1022.2
20260507143325 11 300 0.0 0.0 0.00 0.00 0.00 77 1022.1
20260507142821 11 316 0.0 1.6 0.00 0.00 0.00 78 1021.9
20260507142318 11 319 0.0 1.6 0.00 0.00 0.00 77 1021.8
20260507141814 11 315 0.0 0.0 0.00 0.00 0.00 78 1022.0
20260507141311 11 314 0.0 0.0 0.00 0.00 0.00 79 1021.6
20260507140808 11 310 0.0 0.0 0.00 0.00 0.00 78 1021.9
20260507140305 11 311 0.0 0.0 0.00 0.00 0.00 79 1021.8
20260507135802 11 325 1.6 3.2 0.00 0.00 0.00 78 1021.8
20260507135259 11 185 1.6 3.2 0.00 0.00 0.00 79 1021.9
20260507134755 11 290 0.0 1.6 0.00 0.00 0.00 79 1021.4
20260507134252 11 300 1.6 1.6 0.00 0.00 0.00 78 1021.8
20260507133748 11 315 1.6 1.6 0.00 0.00 0.00 78 1021.5
20260507133244 11 323 1.6 1.6 0.00 0.00 0.00 79 1021.6
20260507132743 11 299 0.0 0.0 0.00 0.00 0.00 79 1021.6
20260507132239 11 314 0.0 0.0 0.00 0.00 0.00 79 1021.8
20260507131736 11 329 0.0 0.0 0.00 0.00 0.00 79 1021.6
20260507131233 11 316 0.0 0.0 0.00 0.00 0.00 79 1021.4
20260507130729 11 316 0.0 0.0 0.00 0.00 0.00 79 1021.4
20260507130227 11 199 1.6 3.2 0.00 0.00 0.00 79 1021.6
20260507125726 11 193 3.2 4.8 0.00 0.00 0.00 79 1021.8
20260507125223 11 293 1.6 1.6 0.00 0.00 0.00 79 1021.6
20260507124720 11 308 0.0 1.6 0.00 0.00 0.00 79 1021.8
20260507124217 11 301 0.0 0.0 0.00 0.00 0.00 79 1021.5
20260507123715 11 220 1.6 1.6 0.00 0.00 0.00 79 1021.5
20260507123212 11 288 0.0 1.6 0.00 0.00 0.00 79 1021.5
20260507122707 11 290 0.0 1.6 0.00 0.00 0.00 80 1021.6
20260507122203 11 306 1.6 1.6 0.00 0.00 0.00 80 1021.8
20260507121659 11 302 0.0 0.0 0.00 0.00 0.00 80 1021.6
20260507121155 11 290 0.0 1.6 0.00 0.00 0.00 81 1021.8
20260507120651 11 318 0.0 0.0 0.00 0.00 0.00 80 1021.5
20260507120148 11 312 0.0 0.0 0.00 0.00 0.00 80 1021.9
20260507115645 11 304 0.0 0.0 0.00 0.00 0.00 80 1021.8
20260507115140 11 280 0.0 1.6 0.00 0.00 0.00 81 1022.0
20260507114636 11 238 3.2 3.2 0.00 0.00 0.00 80 1021.9
20260507114134 11 299 0.0 0.0 0.00 0.00 0.00 80 1021.9
20260507113631 11 296 0.0 0.0 0.00 0.00 0.00 80 1022.0
20260507113128 11 321 0.0 0.0 0.00 0.00 0.00 79 1021.9
20260507112626 11 311 0.0 0.0 0.00 0.00 0.00 80 1021.9
20260507112122 11 307 1.6 3.2 0.00 0.00 0.00 80 1022.0
20260507111620 11 294 0.0 0.0 0.00 0.00 0.00 80 1021.9
20260507111116 11 293 0.0 0.0 0.00 0.00 0.00 80 1022.0
20260507110612 11 300 0.0 0.0 0.00 0.00 0.00 80 1022.0
20260507110109 11 297 0.0 1.6 0.00 0.00 0.00 80 1022.1
20260507105606 11 312 0.0 0.0 0.00 0.00 0.00 79 1022.0
20260507105102 11 284 1.6 1.6 0.00 0.00 0.00 80 1022.1
20260507104600 11 303 0.0 0.0 0.00 0.00 0.00 79 1022.0
20260507104056 11 318 0.0 0.0 0.00 0.00 0.00 80 1022.1
20260507103552 11 208 1.6 3.2 0.00 0.00 0.00 81 1021.9
20260507103049 11 297 0.0 0.0 0.00 0.00 0.00 81 1022.1
20260507102545 11 300 0.0 1.6 0.00 0.00 0.00 81 1022.2
20260507102042 12 306 0.0 0.0 0.00 0.00 0.00 80 1022.2
20260507101537 12 296 0.0 0.0 0.00 0.00 0.00 80 1022.3
20260507101033 12 307 0.0 0.0 0.00 0.00 0.00 80 1022.0
20260507100531 12 304 0.0 0.0 0.00 0.00 0.00 79 1022.2
20260507100029 12 307 0.0 0.0 0.00 0.00 0.00 79 1022.4
20260507095527 12 308 0.0 1.6 0.00 0.00 0.00 80 1022.2
20260507095023 12 299 0.0 0.0 0.00 0.00 0.00 80 1022.3
20260507094519 12 338 0.0 1.6 0.00 0.00 0.00 79 1022.3
20260507094016 12 304 0.0 0.0 0.00 0.00 0.00 79 1022.4
20260507093514 12 292 0.0 1.6 0.00 0.00 0.00 79 1022.6
20260507093013 12 301 0.0 1.6 0.00 0.00 0.00 79 1022.5
20260507092509 12 296 0.0 0.0 0.00 0.00 0.00 79 1022.6
20260507092005 12 299 0.0 0.0 0.00 0.00 0.00 79 1022.7
20260507091502 12 298 0.0 0.0 0.00 0.00 0.00 79 1022.6
20260507090958 12 300 1.6 1.6 0.00 0.00 0.00 79 1022.7
20260507090454 12 323 0.0 0.0 0.00 0.00 0.00 79 1022.5
20260507085950 12 302 1.6 1.6 0.00 0.00 0.00 79 1022.7
20260507085448 12 292 0.0 1.6 0.00 0.00 0.00 79 1022.6
20260507084944 12 297 0.0 0.0 0.00 0.00 0.00 79 1022.7
20260507084441 12 298 0.0 0.0 0.00 0.00 0.00 79 1022.5
20260507083938 12 291 0.0 1.6 0.00 0.00 0.00 79 1022.5
20260507083435 12 302 0.0 0.0 0.00 0.00 0.00 80 1022.6
20260507082931 12 302 0.0 0.0 0.00 0.00 0.00 80 1022.6
20260507082427 12 311 1.6 1.6 0.00 0.00 0.00 81 1022.7
20260507081924 12 297 0.0 0.0 0.00 0.00 0.00 81 1022.8
20260507081420 12 297 0.0 0.0 0.00 0.00 0.00 80 1022.7
20260507080917 12 297 0.0 0.0 0.00 0.00 0.00 81 1022.6
20260507080414 12 288 0.0 1.6 0.00 0.00 0.00 80 1022.7
20260507075909 12 298 0.0 0.0 0.00 0.00 0.00 81 1022.7
20260507075405 12 305 0.0 0.0 0.00 0.00 0.00 81 1022.8
20260507074902 12 304 1.6 1.6 0.00 0.00 0.00 82 1022.5
20260507074358 12 312 0.0 0.0 0.00 0.00 0.00 81 1022.7
20260507073856 12 300 0.0 0.0 0.00 0.00 0.00 81 1022.7
20260507073352 12 301 0.0 1.6 0.00 0.00 0.00 81 1022.8
20260507072849 12 305 0.0 0.0 0.00 0.00 0.00 81 1022.8
20260507072347 12 315 0.0 0.0 0.00 0.00 0.00 81 1022.5
20260507071844 12 306 0.0 0.0 0.00 0.00 0.00 81 1022.7
20260507071342 12 298 0.0 0.0 0.00 0.00 0.00 80 1022.5
20260507070837 12 23 1.6 1.6 0.00 0.00 0.00 80 1022.6
20260507070335 12 253 1.6 3.2 0.00 0.00 0.00 80 1022.5
20260507065832 12 303 0.0 0.0 0.00 0.00 0.00 80 1022.6
20260507065329 12 1 1.6 1.6 0.00 0.00 0.00 80 1022.3
20260507064826 12 308 0.0 1.6 0.00 0.00 0.00 81 1022.4
20260507064324 12 307 0.0 0.0 0.00 0.00 0.00 81 1022.6
20260507063822 12 306 0.0 0.0 0.00 0.00 0.00 80 1022.4
20260507063318 12 303 0.0 0.0 0.00 0.00 0.00 81 1022.5
20260507062815 12 289 0.0 1.6 0.00 0.00 0.00 81 1022.3
20260507062312 12 286 1.6 1.6 0.00 0.00 0.00 81 1022.6
20260507061810 12 266 1.6 1.6 0.00 0.00 0.00 81 1022.6
20260507061308 12 284 0.0 1.6 0.00 0.00 0.00 82 1022.5
20260507060806 12 305 0.0 0.0 0.00 0.00 0.00 82 1022.6
20260507060302 12 290 3.2 3.2 0.00 0.00 0.00 82 1022.6
20260507055759 12 290 1.6 3.2 0.00 0.00 0.00 82 1022.6
20260507055254 12 319 1.6 1.6 0.00 0.00 0.00 82 1022.6
20260507054750 12 287 1.6 1.6 0.00 0.00 0.00 82 1022.4
20260507054247 12 303 0.0 1.6 0.00 0.00 0.00 82 1022.6
20260507053744 13 320 1.6 1.6 0.00 0.00 0.00 82 1022.5
20260507053242 13 345 0.0 1.6 0.00 0.00 0.00 82 1022.5
20260507052741 13 325 1.6 1.6 0.00 0.00 0.00 81 1022.6
20260507052237 13 10 1.6 1.6 0.00 0.00 0.00 81 1022.3
20260507051735 13 275 1.6 3.2 0.00 0.00 0.00 81 1022.4
20260507051231 13 317 3.2 3.2 0.00 0.00 0.00 81 1022.6
20260507050728 13 292 0.0 1.6 0.00 0.00 0.00 81 1022.3
20260507050226 13 109 1.6 1.6 0.00 0.00 0.00 80 1022.5
20260507045722 13 206 1.6 3.2 0.00 0.00 0.00 80 1022.4
20260507045218 13 310 1.6 1.6 0.00 0.00 0.00 80 1022.6
20260507044716 13 294 1.6 3.2 0.00 0.00 0.00 80 1022.6
20260507044212 13 1 0.0 1.6 0.00 0.00 0.00 80 1022.4
20260507043708 13 282 1.6 3.2 0.00 0.00 0.00 80 1022.6
20260507043205 13 325 3.2 4.8 0.00 0.00 0.00 80 1022.3
20260507042702 13 305 3.2 4.8 0.00 0.00 0.00 79 1022.2
20260507042156 13 328 0.0 1.6 0.00 0.00 0.00 79 1022.2
20260507041654 14 310 1.6 3.2 0.00 0.00 0.00 79 1022.2
20260507041150 14 308 1.6 1.6 0.00 0.00 0.00 79 1022.2
20260507040648 14 290 0.0 0.0 0.00 0.00 0.00 79 1022.3
20260507040144 14 267 3.2 3.2 0.00 0.00 0.00 79 1022.3
20260507035639 14 268 1.6 3.2 0.00 0.00 0.00 79 1021.9
20260507035136 14 300 1.6 3.2 0.00 0.00 0.00 78 1021.9
20260507034633 15 308 3.2 3.2 0.00 0.00 0.00 78 1021.8
20260507034131 15 296 0.0 0.0 0.00 0.00 0.00 78 1021.9
20260507033629 15 151 3.2 3.2 0.00 0.00 0.00 78 1021.8
20260507033126 15 296 1.6 3.2 0.00 0.00 0.00 78 1021.8
20260507032623 15 332 0.0 0.0 0.00 0.00 0.00 79 1021.6
20260507032119 15 40 0.0 1.6 0.00 0.00 0.00 79 1021.3
20260507031616 15 297 0.0 0.0 0.00 0.00 0.00 79 1021.3
20260507031112 15 325 1.6 1.6 0.00 0.00 0.00 78 1021.4
20260507030609 15 299 0.0 1.6 0.00 0.00 0.00 78 1021.3
20260507030107 15 298 1.6 1.6 0.00 0.00 0.00 79 1021.2
20260507025604 15 301 0.0 0.0 0.00 0.00 0.00 79 1021.1